Location: Monrovia
(34.7865°N, 86.7139°W)
Time: 15:10:25
(UTC+00:00)

IRS-P3 - Pass Details

Date: 14 July 2020
Orbit: 814 x 818 km, 98.8° (Epoch: 12 August)

Event Time Altitude Azimuth Distance (km) Brightness Sun altitude
Rises 08:37:52 0° 7° (N) 3,347 8.2 -21.4°
Reaches altitude 10° 08:40:15 10° 3° (N) 2,412 7.3 -21.0°
Maximum altitude 08:45:26 54° 287° (WNW) 985 4.3 -20.3°
Enters shadow 08:47:05 39° 235° (SW) 1,208 4.5 -20.1°
